This is the latest recevied weather packets stored in our database for station/object DM4XI-13. If no packets are shown the sender has not sent any weather packets the latest 10 day(s).
| Time | Temp. | Humidity | Pressure | Rain* | Wind** | Luminosity | Snow |
|---|---|---|---|---|---|---|---|
| 1778220867 | 10.56° C | 89% | 1014.9 hPa | 0 mm | 0 m/s | 117 W/m² | - |
| 1778220806 | 10.56° C | 89% | 1015.1 hPa | 0 mm | 0.45 m/s, 233° | 111 W/m² | - |
| 1778220745 | 10° C | 89% | 1014.7 hPa | 0 mm | 0 m/s | 106 W/m² | - |
| 1778220684 | 10° C | 88% | 1014.9 hPa | 0 mm | 0 m/s | 99 W/m² | - |
| 1778220623 | 10° C | 89% | 1015.1 hPa | 0 mm | 0 m/s | 99 W/m² | - |
| 1778220562 | 10° C | 88% | 1015 hPa | 0 mm | 0 m/s | 100 W/m² | - |
| 1778220501 | 10° C | 88% | 1015 hPa | 0 mm | 0.45 m/s, 227° | 97 W/m² | - |
| 1778220440 | 10° C | 89% | 1014.9 hPa | 0 mm | 0 m/s | 93 W/m² | - |
| 1778220378 | 10° C | 89% | 1014.9 hPa | 0 mm | 0 m/s | 93 W/m² | - |
| 1778220318 | 10° C | 90% | 1014.9 hPa | 0 mm | 0 m/s | 97 W/m² | - |
| 1778220257 | 10° C | 91% | 1015 hPa | 0 mm | 0 m/s | 103 W/m² | - |
| 1778220196 | 9.44° C | 91% | 1014.9 hPa | 0 mm | 0 m/s | 111 W/m² | - |
| 1778220135 | 9.44° C | 92% | 1015 hPa | 0 mm | 0 m/s | 119 W/m² | - |
| 1778220074 | 9.44° C | 92% | 1014.8 hPa | 0 mm | 0 m/s | 126 W/m² | - |
| 1778220013 | 9.44° C | 92% | 1014.9 hPa | 0 mm | 0 m/s | 131 W/m² | - |
| 1778219952 | 9.44° C | 92% | 1015 hPa | 0 mm | 0 m/s | 135 W/m² | - |
| 1778219891 | 9.44° C | 92% | 1014.9 hPa | 0 mm | 0 m/s | 134 W/m² | - |
| 1778219829 | 9.44° C | 93% | 1014.8 hPa | 0 mm | 0 m/s | 131 W/m² | - |
| 1778219768 | 8.89° C | 93% | 1014.8 hPa | 0 mm | 0 m/s | 130 W/m² | - |
| 1778219708 | 8.89° C | 93% | 1014.9 hPa | 0 mm | 0.45 m/s, 227° | 125 W/m² | - |
| 1778219647 | 8.89° C | 93% | 1014.8 hPa | 0 mm | 0 m/s | 118 W/m² | - |
| 1778219586 | 8.89° C | 93% | 1015 hPa | 0 mm | 0.45 m/s, 227° | 110 W/m² | - |
| 1778219524 | 8.89° C | 93% | 1014.7 hPa | 0 mm | 0 m/s | 101 W/m² | - |
| 1778219464 | 8.89° C | 93% | 1014.8 hPa | 0 mm | 0 m/s | 98 W/m² | - |
| 1778219403 | 8.89° C | 93% | 1014.8 hPa | 0 mm | 0.45 m/s, 228° | 97 W/m² | - |
* Rain latest hour (hover to see other rain measurements)
** Current wind speed in m/s (hover to see current wind gust speed)